Theta_e
313 312 311 312 313 316 322 326 330 329 331 333 333 334 338 341 341 341 343 343 341 347 348 351 353 355 355 353 353 351 351 351 354 355 355 355 355 355 355 355 355 356 356 355
313 312 310 311 312 313 314 320 325 326 329 329 330 333 335 341 342 342 344 345 346 346 343 347 350 354 356 356 354 354 354 354 354 357 357 357 357 356 356 356 356 356 356 356
312 310 311 312 312 314 316 318 321 326 326 328 332 334 341 340 341 342 343 344 347 347 349 345 346 350 355 357 355 355 357 356 356 357 358 358 357 357 357 357 357 357 357 356
312 311 312 313 324 323 322 317 319 324 327 330 330 339 336 334 335 336 338 341 345 347 346 347 346 346 351 353 356 357 358 358 357 358 359 358 358 358 359 358 358 358 357 357
312 311 310 311 320 320 322 322 324 326 327 327 326 331 337 330 329 332 332 334 341 344 346 348 349 345 348 351 354 356 358 358 358 358 359 359 359 359 358 358 358 358 358 358
313 311 312 320 315 314 315 327 321 322 324 324 327 339 338 326 325 326 327 329 340 345 349 353 352 348 347 352 355 358 358 358 358 358 359 359 359 359 358 358 357 356 356 357
314 314 311 316 314 314 323 323 317 318 319 322 324 327 324 322 322 321 321 322 335 346 351 356 349 347 352 353 356 357 356 355 356 357 359 359 359 359 359 358 357 358 357 357
312 314 313 314 315 319 315 312 315 316 317 319 319 320 322 322 321 321 322 321 325 342 349 355 350 348 357 357 354 356 355 355 357 357 356 357 358 359 359 359 359 360 359 359
313 313 314 312 313 313 312 312 312 314 315 317 318 319 321 321 320 320 322 321 322 330 344 350 356 351 354 355 355 355 356 357 357 357 357 356 358 359 359 359 359 360 360 360
312 314 314 310 313 312 311 312 313 314 316 317 319 318 319 319 319 320 320 323 323 323 328 335 344 352 355 356 355 356 357 357 358 359 358 357 358 359 359 359 359 358 359 358
312 312 309 310 311 310 311 312 312 313 314 316 318 318 318 318 318 319 320 322 323 324 323 324 327 335 344 355 354 354 356 357 357 358 358 359 358 358 358 358 358 359 358 359
311 308 309 309 309 309 310 311 312 313 314 315 315 318 318 317 317 317 319 321 323 325 324 324 325 327 330 337 352 358 357 355 355 354 356 356 357 357 355 354 357 357 359 360
307 307 308 308 308 308 308 309 311 313 313 315 315 317 317 316 315 316 319 320 322 324 324 325 326 325 324 326 332 345 352 356 358 358 358 356 358 359 361 355 355 356 357 357
306 306 307 307 308 307 307 308 310 315 315 315 316 315 315 315 315 315 317 319 321 323 322 322 324 322 322 323 326 329 337 338 351 353 355 356 352 354 358 357 357 358 354 354
305 305 306 306 306 306 306 307 311 313 315 316 316 316 315 316 316 318 320 320 321 320 320 321 321 320 320 321 324 325 329 332 333 340 348 347 342 336 343 353 350 357 357 356
306 305 305 305 305 305 305 306 307 309 310 311 313 315 315 316 317 316 316 317 318 319 318 316 318 317 319 320 322 323 324 324 325 331 332 341 345 347 347 348 351 353 352 351
307 307 305 305 305 304 304 304 305 306 307 308 308 309 310 312 312 312 311 311 313 312 313 313 314 314 317 319 320 322 322 323 323 325 328 331 336 340 343 344 344 347 349 351
308 307 306 305 305 304 303 303 303 303 305 305 305 307 306 307 309 308 308 308 308 309 308 309 311 312 315 317 318 319 322 322 323 325 326 328 330 333 335 336 340 341 341 343
307 307 306 305 304 304 303 303 302 302 302 303 304 304 305 305 305 307 306 307 307 307 307 308 309 312 313 314 314 317 320 322 324 324 324 325 327 330 331 332 334 338 340 340
306 306 306 306 305 305 304 304 303 302 302 302 302 302 303 304 304 304 305 305 306 306 306 307 308 310 310 311 311 314 316 319 322 325 327 327 328 330 333 333 333 335 339 340
305 305 305 305 305 305 304 304 304 304 303 302 302 302 302 302 303 303 304 305 304 305 305 305 306 307 307 307 307 307 308 309 310 314 316 327 332 331 333 336 338 334 335 335
304 304 304 304 304 304 304 303 303 304 304 304 304 303 302 302 302 303 302 303 303 303 303 303 303 303 302 302 302 303 303 302 301 302 303 304 306 310 312 313 315 313 312 314
304 304 303 303 303 303 303 303 303 303 303 303 304 303 303 304 302 302 302 301 302 302 302 302 302 301 301 300 299 299 299 299 298 298 298 298 298 298 299 298 299 301 301 302
303 303 303 303 302 302 303 303 303 303 303 303 304 303 303 303 302 302 301 302 302 302 300 301 301 300 300 299 298 298 298 298 297 296 296 296 295 295 295 295 295 295 295 296
303 302 302 302 302 302 302 302 302 302 303 303 303 303 303 302 302 301 301 301 301 302 302 300 300 300 300 299 298 298 297 296 296 296 295 295 295 294 294 294 293 293 293 293
302 302 302 302 302 302 301 302 302 302 302 302 302 302 302 303 302 302 301 301 301 300 301 300 300 300 300 299 299 297 296 296 295 295 295 294 294 294 293 293 292 292 292 292
302 300 301 301 301 301 301 302 302 301 301 302 302 302 302 302 302 302 302 301 300 300 300 299 299 299 299 299 299 299 298 296 295 295 295 294 293 293 293 292 292 292 292 292
Wind_Speed
14 14 12 15 15 15 16 16 21 19 20 19 7 5 8 9 7 6 6 4 4 11 14 19 27 30 34 37 36 38 36 38 37 36 35 34 32 32 30 29 27 26 25 24
15 17 14 17 17 18 19 19 17 17 19 13 10 12 12 8 9 8 7 7 8 7 11 15 25 31 34 36 38 38 37 37 36 34 35 35 32 31 30 29 29 26 27 26
13 12 9 15 21 22 20 20 18 19 16 11 8 14 7 8 8 9 8 9 10 10 11 16 23 28 33 36 35 38 36 37 36 36 35 35 34 32 31 31 29 29 28 27
11 9 15 4 10 12 18 19 22 17 12 6 9 12 2 7 10 11 11 12 12 12 14 18 20 27 30 33 35 34 34 34 35 35 35 33 32 32 32 31 30 30 28 29
11 11 14 6 9 9 12 6 1 11 12 10 12 14 16 9 12 13 14 14 15 18 19 20 22 25 28 32 34 35 36 36 36 36 33 32 32 32 31 30 29 30 29 28
11 12 13 6 5 10 8 4 9 10 9 11 12 10 3 12 14 16 16 17 20 22 22 21 23 27 30 33 32 35 39 39 36 34 34 34 32 31 31 29 29 28 30 30
14 11 11 5 5 3 6 2 12 10 11 12 8 10 10 12 13 17 18 20 23 17 17 20 18 29 28 31 34 37 31 32 32 32 31 32 31 30 30 29 26 28 26 27
10 8 16 6 0 2 3 10 11 13 12 13 12 13 11 11 13 14 16 21 23 16 14 15 9 20 21 24 24 27 28 30 30 31 30 28 28 27 26 25 26 24 25 25
5 6 5 7 9 9 7 11 14 14 14 15 14 12 13 11 13 14 17 19 22 20 14 17 13 10 16 19 23 26 26 27 27 27 28 26 27 25 25 25 25 25 25 24
4 2 7 11 10 7 10 12 12 13 14 15 13 12 12 10 11 12 17 18 21 19 19 20 20 14 8 9 17 22 24 24 24 24 24 25 24 25 25 26 26 25 24 23
5 10 12 6 6 9 13 12 11 11 10 14 11 11 11 10 10 11 14 16 19 20 20 21 20 18 14 9 15 20 22 22 22 22 23 22 23 23 24 24 25 24 23 22
3 9 8 8 10 13 13 13 10 9 9 12 12 10 10 9 11 13 13 13 14 16 18 22 21 21 20 18 11 10 14 16 18 18 18 18 19 17 16 12 19 22 20 20
5 11 11 11 12 11 12 13 11 10 9 11 11 8 9 8 11 13 10 10 12 12 16 18 19 21 23 21 17 10 15 5 12 16 17 16 12 5 6 9 21 18 27 26
11 12 5 9 7 12 11 13 14 2 3 2 3 3 6 6 8 10 10 9 8 10 14 16 16 19 23 21 16 15 8 5 7 9 14 18 19 12 3 13 2 13 29 30
14 13 9 11 11 12 14 12 6 4 6 4 2 3 2 4 6 9 10 11 9 10 11 13 13 17 20 22 17 13 9 6 6 2 1 4 10 5 11 17 18 24 14 12
10 14 15 14 13 14 14 14 9 9 9 8 10 11 7 3 7 11 12 12 11 10 12 14 16 17 18 19 17 10 10 6 7 5 3 4 4 13 23 22 17 18 15 10
11 15 16 15 13 14 16 12 13 13 12 13 15 16 17 15 13 14 14 15 13 13 14 14 16 19 19 16 15 12 13 11 7 6 3 4 8 7 6 14 16 15 13 9
8 10 12 13 14 13 14 17 19 22 18 18 16 17 17 14 11 14 12 11 13 14 17 18 18 17 14 13 15 14 11 12 13 12 9 6 5 8 13 16 15 13 11 9
9 8 10 12 14 13 12 14 19 20 21 20 18 16 15 17 15 11 12 18 17 15 19 19 17 13 12 13 14 10 9 10 10 11 12 12 12 14 14 14 15 13 11 11
9 8 11 11 11 14 15 14 11 19 21 20 19 18 19 21 20 14 16 19 18 16 16 18 17 15 15 14 15 9 9 8 9 12 13 14 13 12 12 11 13 14 14 13
9 8 10 12 14 14 15 15 14 9 10 12 17 17 16 16 14 20 18 16 23 19 21 21 21 17 18 17 17 16 13 11 10 10 13 14 14 10 10 9 7 9 7 7
11 9 10 12 13 15 13 13 13 13 12 15 14 13 17 20 19 18 22 18 22 23 26 28 25 26 25 24 23 22 21 20 19 18 18 19 18 16 13 12 10 9 9 5
10 9 8 9 10 12 12 13 12 12 13 13 15 14 16 16 18 17 12 22 22 27 27 28 28 28 27 28 29 30 29 28 27 27 25 25 24 24 23 24 20 17 13 11
8 8 7 6 8 10 10 11 11 11 10 11 12 15 18 16 19 18 20 19 20 25 28 28 27 28 29 30 32 34 34 32 31 30 29 29 27 27 27 25 25 24 22 21
6 5 7 6 6 8 10 9 9 11 10 11 9 10 13 16 18 17 17 21 21 19 20 24 25 26 27 29 28 30 33 35 33 32 31 31 30 29 28 27 28 28 28 28
6 7 7 6 6 7 8 7 11 9 10 9 10 12 12 12 12 14 17 18 20 19 18 20 21 22 23 24 24 27 28 28 30 32 32 31 29 29 29 30 31 31 30 29
3 3 6 4 5 7 8 7 8 8 10 10 10 11 11 10 9 8 11 13 16 17 18 20 20 20 20 20 20 21 22 25 27 26 29 29 29 27 25 24 24 24 25 26
Wind_Direction
266 276 276 273 264 262 254 261 249 241 226 249 224 13 329 316 314 314 310 320 240 229 214 208 204 205 203 206 203 202 197 200 200 201 203 208 209 209 211 214 218 222 223 225
270 268 258 267 261 251 247 245 255 266 277 284 323 307 284 311 320 322 324 306 296 268 247 222 212 207 204 205 204 201 197 200 199 200 201 205 207 208 209 212 215 217 221 223
262 261 274 263 254 241 243 234 238 236 245 254 283 270 320 324 323 327 316 307 302 288 269 251 223 212 209 206 203 200 199 197 197 198 201 203 204 206 208 210 213 217 219 221
265 288 242 220 37 304 280 224 227 251 257 301 295 306 -0 0 339 327 328 317 306 293 276 258 245 220 211 206 203 201 202 199 198 198 202 203 202 205 207 210 210 214 218 222
244 249 267 311 29 9 355 180 257 275 279 306 295 274 259 359 350 341 331 315 302 289 278 263 247 228 207 205 200 199 200 200 199 197 198 200 202 205 207 209 211 216 219 221
274 253 252 58 22 5 347 248 18 330 321 327 306 245 136 355 350 344 337 329 315 305 292 270 240 229 203 200 198 199 199 198 198 197 195 197 200 201 204 208 212 216 220 222
233 249 259 98 17 72 216 104 330 326 323 321 328 326 327 345 346 343 347 340 331 324 312 305 235 215 195 196 202 202 199 198 198 199 199 198 198 200 202 205 211 217 220 222
228 249 249 14 61 209 332 311 314 321 317 314 315 317 326 343 344 348 353 358 355 347 348 328 250 207 187 196 199 196 199 197 195 196 198 199 201 203 205 206 211 216 219 226
247 239 18 359 292 286 278 289 299 309 307 305 306 314 320 337 341 340 352 357 3 1 26 22 10 195 189 195 193 195 195 194 192 195 197 198 197 201 202 205 213 214 217 224
314 316 321 327 297 258 276 293 290 294 291 292 296 308 318 332 336 337 343 349 356 18 31 31 30 43 39 186 197 192 192 188 186 189 195 200 198 202 207 208 211 218 214 218
263 289 326 288 265 314 302 294 280 292 310 308 296 298 314 325 331 331 331 346 1 12 17 28 30 37 35 7 189 188 189 183 182 186 191 197 205 204 210 217 215 213 217 216
296 309 300 291 314 313 310 298 284 281 292 294 299 296 309 321 328 331 323 345 4 9 13 12 25 28 31 24 43 146 165 176 178 179 180 195 198 213 228 235 223 233 226 216
320 326 315 317 315 325 313 303 292 273 258 272 279 290 308 321 327 324 339 357 7 5 13 9 19 20 16 21 30 53 77 107 136 156 172 180 184 208 252 232 244 238 242 248
4 346 315 333 332 332 325 311 294 128 130 246 289 328 315 328 335 347 350 354 2 28 16 6 10 13 5 13 16 30 76 82 144 148 162 154 133 98 123 273 254 262 243 236
8 21 356 344 355 357 349 348 335 95 74 62 58 41 335 344 4 22 20 16 28 30 16 7 4 12 2 3 360 6 358 30 17 14 137 193 207 117 359 279 243 252 233 211
6 17 25 14 7 15 4 13 13 35 59 47 40 39 45 19 69 49 30 25 29 27 21 5 2 360 2 0 352 350 332 351 358 303 325 146 96 147 182 228 236 241 247 231
6 11 16 26 11 16 16 8 10 17 34 39 42 47 46 54 50 45 35 20 26 21 10 4 359 357 6 351 341 345 325 329 305 254 215 196 206 188 195 232 227 226 227 231
1 13 19 17 31 19 17 14 17 19 24 30 37 48 51 45 38 40 32 31 35 28 15 5 357 353 349 346 344 331 325 317 325 326 320 293 255 232 238 248 247 241 244 246
358 355 11 20 22 34 34 23 25 21 18 20 34 43 48 49 40 36 38 43 35 24 12 3 359 357 359 355 351 334 321 311 306 297 286 280 270 247 244 252 260 265 270 272
0 357 348 5 17 18 23 31 39 37 27 27 27 30 38 36 29 14 41 39 29 25 21 15 9 4 8 9 10 9 350 337 320 301 287 285 277 272 263 262 271 276 278 274
12 6 5 2 4 14 23 22 33 54 41 32 41 34 28 27 35 37 37 35 23 27 35 33 30 24 25 28 27 22 20 16 9 355 344 326 309 286 291 312 329 359 2 351
16 20 16 14 15 22 29 34 40 41 47 44 39 53 40 34 26 38 40 33 28 32 39 40 39 44 45 47 47 44 39 37 33 30 30 29 22 13 15 13 10 6 355 337
21 11 24 29 22 19 28 28 43 38 41 46 44 51 55 59 47 34 27 30 41 43 42 42 45 50 53 52 52 51 47 45 43 40 39 42 44 43 40 39 39 44 36 40
23 26 12 7 16 25 18 17 27 41 45 58 50 48 44 56 54 52 47 45 52 57 51 47 45 49 52 54 54 54 51 49 48 47 47 47 48 50 51 51 49 50 51 51
13 6 34 2 8 19 14 10 32 29 38 68 74 78 63 62 63 57 55 50 46 51 56 53 51 51 53 50 53 57 57 54 51 49 48 49 47 49 49 50 55 56 55 55
358 11 41 29 16 6 22 21 48 27 27 37 51 51 65 66 67 58 55 55 56 54 53 47 44 47 52 54 54 54 55 57 57 56 52 48 46 48 52 53 52 55 59 61
212 300 11 73 55 38 37 37 74 46 35 25 59 53 52 48 56 58 57 49 44 46 49 49 45 52 51 52 52 53 54 55 54 55 58 56 52 49 49 53 56 58 57 56